Flag for U.S.A. Weather past 2 weeks in Houston, Texas, U.S.A.

Now
66 °F

Passing clouds.


Feels Like: 66 °F
Forecast: 57 / 72 °F
Wind: 7 mph from Northwest

Location: Houston Hobby Airport

Current Time: Apr 28, 2015 at 7:15:01 AM

Latest Report: Apr 28, 2015 at 6:53 AM


Visibility: 10 mi

Pressure: 29.84 "Hg

Humidity: 87%

Dew point: 62 °F

Location of HoustonLocation

Historic Weather in Houston — Graph

°F

Houston temperature yesterday

Maximum temperature yesterday: 77 °F (at 4:53 PM)
Minimum temperature yesterday: 69 °F (at 6:53 AM)
Average temperature yesterday: 74 °F

Past Weeks' High & Low Weather Summary

 TemperatureHumidityPressure
High87 °F (Apr 23, 2:53 PM)100% (Apr 13, 6:57 AM)30.09 "Hg (Apr 13, 6:57 AM)
Low61 °F (Apr 15, 6:53 AM)37% (Apr 20, 2:53 PM)29.56 "Hg (Apr 27, 3:53 AM)
Average73 °F79%29.87 "Hg
* Reported Apr 13 5:53 AM — Apr 28 5:53 AM, Houston, Weather by CustomWeather, © 2015

Note: Actual official high and low records may vary slightly from our data, if they occured in-between our weather recording intervals... More about our weather records

Advertising

Houston weather history for previous 24 hours

 ConditionsComfort  
Time TempWeatherWind HumidityBarometerVisibility
5:53 AM
Tue, Apr 28
66 °FPassing clouds.No wind87%29.81 "Hg10 mi
4:53 AM67 °FOvercast.10 mph87%29.79 "Hg10 mi
3:53 AM68 °FOvercast.14 mph87%29.78 "Hg10 mi
2:53 AM69 °FOvercast.12 mph84%29.78 "Hg10 mi
1:53 AM70 °FMostly cloudy.10 mph84%29.78 "Hg10 mi
12:53 AM70 °FOvercast.9 mph87%29.79 "Hg10 mi
11:53 PM
Mon, Apr 27
71 °FOvercast.7 mph84%29.79 "Hg10 mi
10:53 PM71 °FOvercast.9 mph84%29.78 "Hg10 mi
9:53 PM70 °FPassing clouds.5 mph87%29.75 "Hg10 mi
8:53 PM71 °FBroken clouds.8 mph84%29.72 "Hg10 mi
7:53 PM73 °FMostly cloudy.10 mph79%29.70 "Hg10 mi
6:53 PM74 °FBroken clouds.8 mph74%29.67 "Hg10 mi
5:53 PM75 °FBroken clouds.9 mph71%29.67 "Hg10 mi
4:53 PM77 °FBroken clouds.13 mph66%29.65 "Hg10 mi
3:53 PM75 °FPartly sunny.10 mph71%29.67 "Hg10 mi
2:53 PM75 °FOvercast.9 mph69%29.69 "Hg10 mi
1:53 PM75 °FLight rain. More clouds than sun.10 mph74%29.69 "Hg10 mi
12:53 PM75 °FOvercast.8 mph74%29.68 "Hg10 mi
11:53 AM75 °FOvercast.7 mph71%29.69 "Hg10 mi
10:53 AM75 °FMostly cloudy.7 mph71%29.67 "Hg10 mi
9:53 AM72 °FMore clouds than sun.13 mph76%29.67 "Hg10 mi
8:53 AM70 °FMostly cloudy.13 mph79%29.67 "Hg10 mi
7:53 AM69 °FHigh level clouds.9 mph84%29.65 "Hg10 mi
Weather by CustomWeather, © 2015

See weather overviewHow to use our weather pages